GPS BIII-1 (43873 NORAD) Tracking and Keplerian Element Data

This shows tracking and keplerian element data for the satellite.

Feedback or suggestion? Click here.




ElementValue
Catalog43873
NameGPS BIII-1
Epoch Orbit3725
Epoch Day13.02688378
Epoch Year2024
RAAN127.2005
Inclination55.239
Eccentricity0.0028466
Argument of Perigee192.161
Mean Anonmoly162.9065
Mean Motion2.00572611
Decay Rate2E-07
L11 43873U 18109A 24013.02688378 .00000020 00000+0 00000+0 0 9996
L22 43873 55.2390 127.2005 0028466 192.1610 162.9065 2.00572611 37254



Live tracking and technical data element details for GPS BIII-1 (NORAD 43873). GPS BIII-1 can be tracked NOW for your location showing map with azimuth and elevation plus other details from your city location.







IsCatalogInMostPopularTable: catalog: 43873, numindb: 1426
Update: records affected: 1



GetName: 43873 GPS BIII-1

Hit Count: updated at: Fri, 19 Apr 2024 11:43:54 GMT